Temp
64 64 64 64 64 64 64 64 64 64 64 64 64 63 63 63 63 60 62 69 68 70 69 65 65 65 63 60 60 54 47 43 45 47 50 57 57 58 58 55 57 60 57 61 62
63 63 63 64 63 64 64 64 64 64 64 63 63 63 63 63 58 60 70 72 71 70 66 63 59 61 58 57 57 51 44 48 53 52 50 56 53 55 57 57 53 55 62 61 60
63 63 63 63 63 64 64 63 63 63 63 63 63 63 62 60 60 63 70 72 71 69 67 65 64 61 53 54 52 49 48 52 55 57 55 54 53 55 51 53 57 56 59 59 59
62 62 62 63 63 63 64 63 63 63 63 63 63 62 62 58 52 63 70 71 70 67 66 63 60 54 50 50 55 48 54 54 57 57 55 53 56 56 53 60 60 56 55 53 51
62 61 62 62 62 63 63 63 63 63 63 63 63 62 58 56 61 65 67 68 66 66 63 62 58 55 51 52 53 50 53 56 59 57 55 55 55 53 57 60 58 56 53 49 48
61 61 61 61 62 63 63 63 63 62 63 63 63 62 56 53 65 66 65 64 65 63 61 62 60 60 54 52 52 53 54 55 57 57 54 54 51 51 59 58 56 52 48 46 47
61 61 61 61 62 62 62 62 62 62 62 63 62 60 55 60 64 64 66 63 64 63 60 60 61 57 54 51 55 53 51 53 54 53 53 54 48 51 60 55 52 46 43 45 46
61 60 60 61 61 61 61 61 61 61 62 62 62 55 56 63 61 64 63 62 64 64 63 61 61 59 54 54 53 48 45 42 51 51 51 52 47 56 58 52 47 43 41 43 44
60 60 60 60 61 61 61 61 61 62 63 62 55 53 55 65 60 61 61 61 61 61 62 67 60 52 52 46 43 42 38 39 47 52 50 49 46 55 56 51 44 41 41 43 42
60 60 60 60 60 61 61 61 61 60 60 61 62 52 56 57 58 60 59 62 58 57 57 56 49 45 43 43 37 39 37 40 42 47 48 45 47 52 54 52 43 40 39 40 41
60 60 60 60 61 61 59 55 55 53 52 56 55 55 57 57 59 57 59 59 56 54 47 47 44 41 45 46 45 42 40 40 42 50 44 45 44 50 52 46 40 39 39 40 40
60 60 60 60 61 61 56 53 54 54 51 57 56 57 59 59 53 55 60 54 51 46 46 43 40 50 49 47 46 41 38 39 44 48 46 45 46 48 44 42 42 40 38 39 39
60 59 60 60 60 58 54 55 58 55 47 53 55 55 56 59 54 54 58 52 48 44 44 42 48 50 49 44 43 41 39 39 42 44 42 39 40 42 40 41 41 40 40 39 38
59 59 59 60 58 56 55 59 58 55 41 47 50 53 55 56 49 55 55 53 46 46 43 42 48 48 43 44 45 39 45 45 42 38 34 38 30 39 39 36 37 37 35 36 36
59 59 59 61 55 54 58 57 56 55 30 48 48 56 53 51 49 48 52 50 45 45 45 44 43 41 42 44 47 44 44 42 40 36 33 35 31 36 37 33 34 34 35 35 36
59 59 59 58 58 57 57 57 56 43 30 44 48 47 47 48 47 48 48 50 49 44 42 44 45 46 46 44 46 46 42 39 35 34 26 35 35 32 35 37 34 35 35 36 35
58 58 58 60 56 59 58 55 42 35 46 42 42 45 44 43 43 44 42 41 39 35 35 39 42 43 46 42 42 41 38 29 26 24 26 33 29 36 36 36 39 36 35 35 36
58 58 58 61 58 59 54 47 35 43 40 45 44 43 41 44 43 42 40 38 42 38 34 35 34 43 46 45 41 39 39 29 22 21 26 31 28 36 34 35 39 38 37 35 35
58 58 58 59 60 59 50 40 40 45 47 44 44 39 39 43 43 40 38 38 43 43 40 34 36 42 43 44 47 38 35 39 30 16 21 30 31 34 35 33 33 34 34 34 35
56 56 56 57 58 54 47 44 44 50 50 49 41 44 37 40 41 39 37 42 44 44 44 41 34 40 41 42 42 40 43 32 29 19 18 26 28 32 30 31 33 33 33 35 35
55 49 52 56 55 49 42 44 47 52 53 48 44 42 41 40 42 37 40 41 44 42 45 42 39 34 39 38 37 37 34 34 34 29 22 17 29 35 36 35 34 35 36 35 35
49 45 52 55 45 46 45 45 48 49 51 49 47 46 44 43 41 39 39 44 46 45 40 43 38 26 34 37 38 36 37 37 31 26 25 26 32 38 37 39 38 37 37 36 35
45 44 51 51 42 39 42 44 47 46 46 45 45 46 46 43 39 39 40 42 45 45 42 42 33 21 29 35 34 33 34 34 31 27 20 23 27 37 35 36 37 36 36 36 36
43 39 43 45 44 45 41 41 40 46 45 46 45 46 43 40 43 39 37 40 41 41 46 47 36 34 31 32 34 28 31 32 31 26 28 30 32 32 35 36 36 35 36 36 35
42 40 42 37 40 42 44 42 41 38 44 47 42 45 42 36 39 39 39 38 39 42 41 41 34 31 34 35 34 32 31 30 30 32 30 34 31 34 35 35 34 36 36 34 34
38 37 39 38 43 41 42 39 40 43 42 41 41 42 44 40 39 34 38 37 37 33 36 36 27 31 26 30 31 28 31 33 34 32 30 30 31 39 34 35 32 34 34 32 32
39 40 39 37 37 39 38 41 41 44 40 41 43 40 40 43 41 38 40 39 39 35 32 32 28 24 27 26 27 21 24 30 32 32 32 27 34 26 31 32 32 31 32 33 32
MSLP
1019.34 1019.30 1019.19 1019.07 1018.93 1018.85 1018.79 1018.75 1018.64 1018.56 1018.40 1018.22 1018.02 1017.82 1017.55 1017.27 1016.69 1016.46 1015.99 1015.30 1015.05 1015.05 1015.13 1015.21 1015.18 1015.34 1015.48 1016.11 1016.50 1017.22 1018.22 1018.53 1017.61 1016.98 1016.45 1016.01 1015.87 1015.42 1015.41 1015.45 1015.58 1015.21 1015.33 1015.23 1015.13
1019.34 1019.29 1019.18 1019.08 1018.98 1018.88 1018.85 1018.80 1018.69 1018.49 1018.28 1018.13 1017.91 1017.74 1017.53 1017.29 1017.01 1016.17 1015.30 1015.07 1015.04 1015.07 1015.29 1015.42 1015.59 1015.71 1016.27 1016.59 1016.90 1017.56 1018.44 1017.97 1017.14 1016.65 1016.39 1016.22 1016.17 1016.08 1016.00 1016.02 1015.88 1015.95 1015.66 1015.62 1015.62
1019.39 1019.29 1019.24 1019.17 1019.08 1019.02 1018.93 1018.83 1018.68 1018.44 1018.21 1017.97 1017.76 1017.59 1017.46 1017.28 1016.89 1015.55 1015.17 1015.08 1015.12 1015.22 1015.33 1015.52 1015.74 1016.02 1016.57 1016.83 1017.11 1017.58 1017.77 1017.43 1016.82 1016.47 1016.38 1016.36 1016.32 1016.29 1016.43 1016.40 1016.31 1016.85 1016.78 1016.79 1016.78
1019.32 1019.34 1019.27 1019.18 1019.12 1019.05 1018.94 1018.76 1018.54 1018.34 1018.08 1017.83 1017.67 1017.52 1017.40 1017.35 1016.77 1015.39 1015.10 1015.11 1015.19 1015.29 1015.45 1015.74 1016.08 1016.51 1016.92 1017.10 1017.09 1017.54 1017.20 1017.18 1016.83 1016.73 1016.76 1016.64 1016.42 1016.53 1016.66 1016.22 1016.65 1017.29 1017.61 1018.10 1018.49
1019.22 1019.19 1019.19 1019.14 1019.08 1018.98 1018.81 1018.65 1018.44 1018.18 1018.01 1017.81 1017.66 1017.52 1017.31 1017.24 1016.16 1015.42 1015.34 1015.33 1015.43 1015.56 1015.69 1015.95 1016.28 1016.62 1016.96 1017.03 1017.19 1017.46 1017.25 1017.06 1016.73 1016.69 1016.79 1016.73 1016.71 1016.99 1016.69 1016.36 1017.36 1018.14 1018.74 1019.47 1019.91
1019.08 1019.06 1019.05 1018.99 1018.90 1018.75 1018.61 1018.50 1018.33 1018.11 1017.95 1017.78 1017.68 1017.68 1017.53 1017.03 1015.49 1015.44 1015.54 1015.70 1015.72 1015.77 1015.93 1016.09 1016.28 1016.51 1016.87 1017.10 1017.34 1017.41 1017.47 1017.34 1016.90 1016.56 1016.69 1016.85 1016.98 1017.01 1016.31 1017.14 1018.15 1019.04 1020.18 1020.80 1021.05
1018.91 1018.87 1018.84 1018.80 1018.66 1018.60 1018.47 1018.38 1018.31 1018.18 1017.95 1017.78 1017.69 1017.79 1017.53 1016.22 1015.51 1015.51 1015.46 1015.73 1015.81 1015.90 1016.16 1016.31 1016.33 1016.69 1017.10 1017.34 1017.48 1017.64 1017.89 1017.62 1016.80 1016.62 1016.66 1016.80 1017.35 1017.00 1016.33 1017.66 1019.02 1020.33 1021.25 1021.78 1022.14
1018.64 1018.71 1018.65 1018.64 1018.58 1018.50 1018.46 1018.27 1018.09 1018.09 1017.91 1017.69 1017.75 1017.80 1016.81 1015.73 1015.78 1015.69 1015.61 1015.83 1015.92 1016.01 1016.18 1016.34 1016.44 1016.97 1017.47 1017.80 1018.19 1018.47 1018.56 1018.41 1017.01 1016.88 1016.83 1017.07 1017.29 1016.90 1016.99 1018.36 1020.15 1021.42 1022.17 1022.40 1022.60
1018.32 1018.46 1018.50 1018.45 1018.48 1018.37 1018.28 1018.03 1017.77 1017.76 1017.94 1017.86 1017.88 1017.65 1016.53 1015.64 1015.87 1015.89 1015.87 1016.06 1016.21 1016.39 1016.51 1016.56 1016.86 1017.98 1018.27 1018.91 1019.50 1019.57 1019.32 1018.97 1017.86 1017.00 1017.11 1017.40 1017.76 1017.20 1017.62 1018.90 1020.93 1022.18 1022.98 1023.42 1023.62
1017.94 1018.10 1018.28 1018.27 1018.32 1018.30 1018.14 1017.93 1017.78 1017.84 1017.94 1017.99 1017.87 1017.85 1016.39 1015.82 1015.85 1015.90 1016.00 1016.19 1016.57 1016.83 1017.11 1017.46 1018.25 1018.98 1019.55 1019.72 1019.96 1019.74 1019.83 1019.27 1018.57 1017.68 1017.58 1017.85 1018.16 1017.93 1018.12 1019.27 1021.25 1022.79 1023.78 1024.12 1024.30
1017.63 1017.73 1017.92 1018.07 1018.16 1018.23 1018.18 1018.22 1018.44 1018.18 1017.81 1016.80 1016.67 1016.26 1015.83 1015.98 1015.98 1016.11 1016.08 1016.39 1016.85 1017.38 1017.95 1018.44 1019.09 1019.20 1018.88 1018.98 1019.03 1019.18 1019.45 1019.30 1018.72 1017.98 1018.22 1018.20 1018.65 1018.31 1018.90 1020.15 1022.09 1023.26 1023.94 1024.43 1024.77
1017.22 1017.38 1017.50 1017.79 1017.98 1018.09 1018.36 1018.15 1017.39 1017.38 1016.94 1015.94 1016.09 1015.95 1015.63 1015.67 1016.12 1016.30 1016.23 1016.70 1017.23 1017.93 1018.49 1019.18 1018.95 1018.10 1018.53 1018.95 1019.32 1019.52 1019.65 1019.50 1019.14 1018.37 1018.74 1018.69 1018.88 1018.89 1020.16 1021.52 1022.57 1023.85 1024.66 1025.10 1025.37
1016.61 1016.96 1017.20 1017.47 1017.74 1018.00 1017.93 1017.41 1017.09 1017.22 1017.32 1015.85 1015.44 1015.38 1015.41 1015.68 1015.84 1016.10 1016.41 1016.79 1017.27 1018.12 1018.48 1018.48 1017.91 1017.84 1018.39 1018.82 1019.29 1019.51 1019.48 1019.51 1019.47 1019.03 1019.06 1019.39 1019.70 1019.84 1021.47 1022.48 1023.40 1024.43 1025.02 1025.49 1025.73
1015.98 1016.43 1016.80 1017.20 1017.91 1017.37 1017.27 1016.74 1017.10 1017.39 1017.54 1015.85 1015.25 1014.84 1015.13 1015.47 1016.19 1016.20 1016.30 1016.68 1017.31 1017.62 1018.47 1018.46 1017.54 1017.71 1018.13 1018.33 1018.70 1019.20 1018.77 1019.01 1019.43 1019.94 1020.12 1020.04 1020.50 1020.30 1021.55 1023.02 1024.17 1024.96 1025.46 1025.86 1026.00
1015.40 1015.72 1016.38 1016.43 1016.63 1017.01 1016.37 1016.56 1017.16 1017.51 1017.29 1015.17 1015.21 1015.09 1015.15 1015.75 1016.31 1016.59 1016.55 1016.57 1017.07 1017.56 1018.18 1017.58 1017.41 1017.56 1017.78 1017.57 1018.10 1018.39 1018.60 1019.26 1019.68 1020.39 1020.76 1020.98 1021.59 1020.51 1021.58 1023.08 1024.16 1025.10 1026.04 1026.25 1026.25
1014.90 1014.94 1015.85 1016.32 1016.62 1016.38 1016.43 1016.68 1017.38 1018.01 1015.88 1014.98 1014.99 1015.12 1015.65 1015.87 1016.34 1016.81 1016.80 1016.80 1017.12 1017.51 1017.69 1017.52 1017.13 1017.11 1016.96 1017.22 1017.61 1018.04 1019.14 1020.03 1020.80 1021.40 1021.61 1021.03 1021.51 1020.94 1021.69 1022.27 1023.71 1024.79 1025.44 1026.27 1026.76
1014.09 1014.42 1015.07 1015.11 1015.26 1015.97 1016.46 1016.76 1017.68 1016.29 1014.39 1014.62 1014.83 1015.19 1015.54 1016.08 1016.67 1016.77 1017.10 1017.27 1017.38 1017.89 1018.03 1017.72 1017.29 1016.94 1016.89 1017.44 1017.92 1018.55 1019.65 1021.35 1022.17 1022.61 1022.02 1021.46 1022.14 1020.70 1021.49 1022.27 1022.78 1024.28 1025.46 1026.09 1026.38
1013.04 1013.74 1013.85 1014.08 1014.75 1015.47 1016.44 1016.69 1015.46 1012.98 1013.66 1013.72 1014.23 1015.20 1015.64 1015.91 1016.41 1016.80 1017.15 1017.42 1017.22 1017.23 1017.54 1017.51 1017.38 1016.82 1016.72 1016.89 1017.48 1018.50 1019.30 1020.79 1022.10 1023.40 1022.59 1022.31 1021.84 1020.90 1021.97 1022.54 1022.66 1023.97 1025.09 1025.90 1026.43
1012.09 1012.36 1012.48 1012.92 1013.87 1014.64 1015.17 1014.25 1012.11 1012.22 1012.45 1013.07 1014.20 1014.93 1015.37 1015.36 1015.78 1016.66 1016.97 1016.63 1016.01 1016.41 1016.59 1016.84 1016.81 1016.63 1016.67 1016.61 1017.07 1018.63 1019.60 1019.98 1021.57 1023.68 1023.61 1021.75 1021.03 1021.31 1022.13 1023.08 1023.51 1024.21 1025.12 1025.75 1026.19
1010.65 1011.09 1010.98 1011.82 1012.83 1013.43 1012.96 1011.69 1011.55 1011.01 1011.39 1012.06 1012.86 1013.26 1014.13 1014.84 1015.51 1016.02 1016.34 1015.46 1015.44 1015.14 1015.22 1016.02 1016.75 1016.89 1017.13 1017.45 1017.75 1017.91 1018.74 1020.35 1021.97 1023.21 1023.38 1021.79 1021.12 1020.84 1022.05 1022.82 1023.77 1024.40 1024.62 1025.37 1026.11
1009.75 1009.88 1009.94 1010.75 1012.41 1011.82 1010.62 1010.71 1010.83 1010.45 1010.64 1011.38 1011.92 1012.63 1013.07 1013.94 1014.58 1015.15 1015.22 1015.09 1015.06 1015.35 1015.53 1016.20 1016.65 1017.31 1017.59 1018.06 1017.96 1018.63 1019.03 1019.80 1020.98 1021.90 1022.25 1022.21 1020.23 1019.45 1020.05 1021.34 1022.77 1023.36 1023.84 1024.23 1024.96
1009.37 1009.89 1010.06 1009.82 1011.03 1010.24 1009.78 1010.20 1010.20 1010.10 1010.75 1010.99 1011.33 1011.78 1012.12 1013.13 1013.88 1014.66 1014.67 1014.27 1014.25 1014.85 1015.97 1016.09 1016.76 1018.03 1017.79 1017.77 1018.64 1018.15 1018.50 1019.08 1020.44 1021.52 1021.83 1021.83 1019.41 1019.44 1019.77 1020.70 1021.71 1022.84 1023.47 1023.90 1024.44
1009.35 1010.08 1010.27 1009.72 1009.01 1009.64 1010.10 1010.09 1010.00 1010.18 1010.41 1011.08 1011.47 1011.67 1012.29 1012.91 1013.84 1014.22 1014.34 1014.34 1014.44 1014.69 1015.19 1016.21 1017.12 1018.29 1018.66 1018.83 1018.56 1018.98 1018.88 1019.57 1020.21 1020.75 1021.19 1022.09 1020.14 1020.23 1020.40 1021.15 1021.76 1022.44 1023.09 1023.67 1024.17
1009.78 1010.51 1010.35 1010.07 1008.99 1008.73 1009.32 1009.85 1010.14 1009.98 1010.40 1010.71 1011.34 1011.88 1012.42 1012.86 1013.37 1013.90 1014.69 1015.07 1015.34 1015.39 1015.06 1015.98 1016.54 1017.83 1017.96 1018.21 1018.76 1019.32 1019.30 1019.48 1020.20 1020.57 1020.37 1019.75 1020.44 1021.03 1021.06 1021.41 1021.80 1022.32 1022.78 1023.30 1023.79
1009.53 1010.52 1010.31 1009.76 1009.36 1008.79 1009.05 1009.55 1009.85 1010.27 1010.66 1010.78 1011.35 1011.43 1012.29 1013.31 1013.77 1014.05 1014.85 1015.47 1015.63 1016.17 1015.71 1016.73 1017.38 1018.27 1018.59 1018.61 1019.29 1019.59 1019.64 1019.43 1020.04 1019.77 1020.24 1019.64 1020.15 1020.30 1020.95 1021.29 1021.65 1022.02 1022.70 1023.19 1023.62
1009.95 1010.43 1010.81 1009.86 1009.08 1008.98 1009.09 1009.13 1009.59 1010.28 1010.75 1011.10 1011.32 1011.73 1012.30 1012.77 1013.29 1013.91 1014.58 1015.34 1015.60 1017.02 1016.50 1017.31 1018.36 1019.05 1020.09 1020.14 1020.23 1020.26 1019.95 1020.41 1020.11 1020.21 1020.22 1020.35 1020.00 1020.07 1020.46 1021.08 1021.70 1022.09 1022.37 1022.86 1023.24
1010.79 1010.90 1010.38 1010.22 1009.54 1009.39 1008.78 1009.11 1009.24 1010.14 1010.99 1011.19 1011.63 1012.36 1012.86 1012.89 1013.92 1014.54 1014.48 1014.98 1015.66 1016.15 1017.03 1017.93 1019.11 1020.22 1020.99 1021.29 1021.27 1021.01 1019.30 1019.59 1019.86 1019.77 1020.00 1020.57 1019.55 1020.49 1020.47 1020.93 1021.31 1021.85 1022.22 1022.53 1022.76
Wind_Speed
4 4 5 6 7 7 8 8 9 9 9 10 11 11 12 13 13 1 4 3 2 8 2 2 3 4 4 3 3 3 6 1 2 2 2 4 6 1 2 1 4 2 1 4 4
3 5 6 7 7 7 8 9 10 10 11 11 11 11 11 11 2 3 3 2 1 8 3 3 2 3 4 2 3 6 4 7 4 3 2 4 2 4 5 7 3 3 6 4 4
4 4 5 6 7 7 8 8 9 10 12 12 11 11 10 7 4 2 4 1 4 3 3 2 4 2 2 2 0 2 5 5 4 4 1 2 3 3 1 5 6 4 9 9 9
5 6 5 5 6 7 8 8 9 10 13 13 10 9 9 2 3 1 2 3 4 2 3 3 3 3 2 1 1 0 4 3 1 3 1 3 3 6 4 8 7 5 4 5 9
7 7 6 6 6 8 8 9 9 10 12 11 9 7 1 2 7 2 4 5 5 4 3 4 4 4 3 3 1 2 3 2 6 6 5 1 6 4 9 9 6 9 10 10 9
8 8 7 7 7 7 9 10 11 10 10 10 7 5 1 3 0 3 5 3 3 3 2 4 5 5 3 2 2 2 2 6 7 8 3 4 2 2 6 9 9 9 10 9 11
9 9 8 8 8 8 8 9 11 10 9 7 2 0 1 10 2 2 2 2 3 2 3 1 1 3 2 1 2 1 5 7 6 2 4 7 1 7 8 9 9 9 8 10 11
10 9 9 9 8 8 9 10 10 9 6 2 3 1 7 1 1 2 1 3 3 3 3 0 2 4 2 1 7 3 4 4 3 2 1 4 8 6 4 10 7 8 7 8 11
10 9 10 9 9 8 9 11 9 2 2 3 1 1 7 1 2 1 0 4 4 3 5 3 4 3 5 5 5 5 3 4 9 1 2 3 5 7 4 8 7 6 7 8 9
11 10 10 9 9 8 10 6 2 2 0 2 1 2 1 4 3 3 2 4 4 4 4 6 6 4 3 4 6 6 4 4 6 1 3 2 7 10 8 4 8 8 7 8 9
11 11 11 10 8 6 5 2 2 2 1 9 5 3 4 1 1 1 2 4 4 5 5 2 4 8 13 11 3 3 4 5 3 4 1 7 6 13 6 6 8 7 7 7 8
13 12 11 9 7 2 2 2 3 2 6 8 5 5 3 5 3 3 4 6 4 5 5 4 7 13 5 5 6 2 1 6 6 5 5 7 9 5 7 4 6 8 7 7 5
14 13 10 8 1 1 4 4 3 2 1 7 5 5 4 7 5 7 9 4 5 6 8 9 7 5 7 5 6 5 7 4 8 4 2 3 7 2 5 8 11 8 6 6 6
15 13 11 8 1 4 4 6 4 1 2 7 5 4 3 6 3 1 4 5 2 11 6 6 5 5 4 5 8 5 8 8 5 4 4 2 6 6 5 5 5 5 6 6 6
16 14 13 13 3 3 3 7 6 3 6 3 3 1 2 5 6 1 1 3 7 7 7 8 4 4 5 8 7 7 5 6 3 4 3 4 2 7 7 5 6 6 4 5 5
18 17 15 7 2 2 6 7 3 4 12 4 4 6 5 3 3 3 2 3 2 3 1 6 1 5 7 2 6 5 5 6 5 3 1 9 9 5 5 4 5 6 8 7 5
20 18 15 7 7 8 6 4 3 9 1 7 6 6 4 6 4 5 6 6 7 6 6 1 5 1 2 4 3 4 6 3 5 2 7 4 2 8 3 4 9 14 9 8 7
22 19 16 8 6 14 4 3 12 9 10 3 6 4 8 8 5 6 7 5 6 2 4 7 4 10 6 7 7 7 8 7 8 4 5 1 7 5 2 4 9 12 10 7 7
21 11 10 11 12 10 8 13 12 9 8 11 4 5 5 5 6 5 8 7 10 12 8 6 5 0 2 3 7 6 5 3 6 3 3 5 3 4 4 4 5 8 7 8 7
11 11 12 15 15 11 13 21 9 7 8 5 11 7 11 8 8 8 9 6 5 10 2 5 1 1 1 2 3 4 7 4 3 1 5 5 7 6 7 10 8 8 10 8 7
9 5 5 18 11 8 13 8 6 6 6 8 10 8 7 9 8 7 7 2 5 5 5 5 4 2 3 6 9 3 3 3 4 5 6 2 9 4 10 13 15 14 11 11 10
4 6 6 15 11 4 14 9 5 8 3 3 3 4 8 9 8 8 10 8 8 9 9 5 5 4 8 1 3 2 7 7 7 7 3 3 15 4 7 12 11 10 11 8 8
2 1 1 3 14 5 3 5 7 6 6 7 6 4 3 8 5 6 6 0 7 9 11 8 1 2 6 2 1 5 4 3 5 4 7 6 8 4 5 6 6 8 7 7 8
4 2 2 2 2 13 9 6 6 1 5 5 5 5 4 4 2 5 6 2 2 1 3 3 5 8 13 6 4 4 5 6 5 4 5 16 8 2 4 7 6 7 7 7 7
3 4 3 7 6 4 8 9 10 6 5 10 4 15 11 7 8 8 3 2 2 2 5 6 8 5 3 5 3 4 5 8 9 8 12 9 11 6 11 9 9 7 7 6 8
4 5 1 3 4 11 10 9 14 16 10 8 11 11 12 13 10 9 8 4 6 1 6 2 3 4 3 2 4 5 7 9 11 5 7 9 18 9 5 6 5 8 7 7 7
2 1 2 3 1 12 11 17 17 14 0 4 10 6 14 14 2 4 3 4 6 10 7 7 6 5 11 1 3 9 12 15 10 10 9 14 19 4 7 6 7 9 8 8 7
Wind_Direction
25 14 11 6 4 1 0 353 352 346 341 334 333 334 334 335 320 302 271 251 276 157 113 115 37 18 36 60 56 118 61 160 227 136 277 337 15 289 296 281 347 279 264 278 317
347 346 348 349 351 348 347 342 339 337 336 333 332 331 333 339 308 265 281 16 122 153 96 113 77 35 31 26 21 84 109 213 215 183 242 314 325 345 7 341 299 324 309 322 339
303 313 323 328 331 331 333 332 327 329 331 329 329 329 330 331 352 269 349 358 153 138 93 80 80 65 63 18 285 152 187 197 245 202 183 245 271 175 241 309 235 305 306 332 3
264 282 294 303 310 318 321 322 323 325 329 328 328 327 325 316 302 18 344 95 139 134 101 103 68 95 109 227 220 46 245 228 244 161 289 265 307 304 197 240 64 4 320 47 50
256 263 273 284 297 306 313 319 322 327 330 333 334 335 6 3 256 44 83 108 109 135 149 139 144 143 178 203 94 193 286 283 278 277 231 277 254 248 266 260 57 73 49 43 38
253 258 264 271 281 294 312 321 324 328 329 329 326 332 111 235 121 117 108 104 125 125 137 127 187 194 163 203 167 198 275 282 283 269 270 220 251 106 286 75 66 67 53 39 38
251 254 260 267 278 293 304 312 319 318 320 322 276 335 113 241 66 136 112 105 153 126 127 166 188 104 113 348 357 356 333 329 261 282 217 159 50 231 244 73 83 67 50 39 30
247 252 255 262 276 292 306 312 309 307 321 27 141 148 240 9 281 125 114 74 79 60 110 126 131 106 79 80 20 21 44 351 287 169 31 128 263 270 312 98 87 75 56 49 35
238 243 249 256 270 289 307 311 313 195 70 111 74 109 266 81 149 167 74 137 90 43 30 67 65 87 37 88 6 2 240 219 316 313 127 145 252 270 48 102 116 99 67 49 28
228 233 244 252 268 295 312 304 65 107 213 249 280 23 213 215 151 129 42 109 105 92 45 54 53 78 46 104 223 205 216 243 241 307 21 273 273 278 301 137 129 100 71 60 50
228 226 232 245 262 298 356 357 338 302 185 193 202 231 135 98 140 70 140 92 86 66 147 26 107 208 206 202 170 163 190 220 256 262 21 249 240 267 310 100 111 112 103 84 59
221 222 225 236 251 298 122 231 228 153 303 229 230 271 173 179 122 207 129 137 145 166 118 57 214 229 131 177 206 205 266 262 279 269 162 275 278 289 28 32 120 115 93 84 70
210 217 218 222 244 241 198 229 143 131 245 288 198 185 196 150 211 205 150 144 152 149 191 174 212 156 168 174 168 195 199 211 221 326 288 322 290 224 54 79 81 76 96 84 87
207 211 202 156 188 183 221 166 141 113 312 261 215 234 122 136 225 71 194 144 190 198 169 232 258 175 163 204 143 214 201 208 217 116 223 113 270 296 139 107 81 107 111 117 109
206 202 189 176 151 192 199 130 119 68 286 221 176 116 144 160 134 334 323 55 170 179 134 238 188 173 184 203 168 227 144 165 159 154 87 291 324 257 131 163 173 167 156 138 123
208 197 179 193 178 237 135 114 84 73 244 207 139 164 134 159 140 123 118 56 143 146 251 231 272 179 203 105 168 133 98 52 49 88 221 218 186 254 195 178 167 168 163 165 154
205 198 179 152 204 148 152 120 148 219 32 193 188 167 176 165 172 158 160 172 160 135 219 231 236 225 159 96 65 85 86 338 339 359 236 108 144 243 305 314 183 168 173 176 171
201 195 202 195 151 146 154 160 211 188 192 113 133 114 181 159 213 172 139 186 235 177 124 167 265 165 189 198 174 180 160 160 226 208 251 120 236 257 330 335 137 149 169 166 181
198 207 207 193 166 167 173 214 218 185 173 149 100 152 225 209 155 149 198 198 196 182 181 153 270 18 168 150 145 186 185 174 110 64 39 226 288 239 116 69 128 154 160 192 194
208 209 215 158 170 179 211 210 209 180 146 150 178 174 180 195 157 179 178 204 212 184 176 194 185 150 168 110 26 154 160 91 356 242 247 271 266 227 210 195 190 187 201 200 205
210 203 160 152 158 191 214 219 177 189 156 166 196 164 186 170 183 190 196 235 196 151 144 145 144 217 120 211 178 127 200 89 143 153 189 260 260 236 204 176 190 204 202 199 201
138 224 166 148 189 197 210 176 179 160 163 153 145 153 167 175 175 200 197 213 158 149 162 205 136 167 199 234 302 241 206 165 188 234 236 160 261 5 163 182 183 196 208 208 202
115 123 327 269 202 195 106 171 189 143 156 159 170 167 191 178 177 194 190 36 163 157 164 183 171 35 339 351 71 225 198 139 107 66 198 202 260 1 72 144 195 196 214 217 204
112 168 191 227 305 192 167 176 183 240 160 139 164 139 125 158 232 196 197 110 22 144 48 170 161 179 237 190 135 180 197 178 153 189 201 234 257 262 227 197 197 217 222 228 216
110 191 257 205 200 156 169 171 196 167 199 182 202 203 183 201 216 208 157 144 77 123 108 162 226 163 217 157 147 218 208 173 194 215 213 240 222 218 204 213 223 222 239 236 222
136 156 206 298 203 191 193 196 204 198 164 203 222 190 189 204 192 188 148 179 189 104 142 89 192 108 257 244 194 252 234 204 236 244 256 263 268 244 184 212 188 215 210 208 223
114 331 186 169 257 197 197 204 206 185 117 61 225 153 210 220 88 41 88 125 172 158 154 140 134 129 232 85 103 277 215 209 207 208 212 231 241 149 228 189 211 217 199 209 210